[[{"header":{"parameterUnit":"m.s-1","parameterCategory":1,"la1":30.2991,"la2":30.254,"lo1":-89.0895,"lo2":-89.0444,"dy":0.0017,"dx":0.0017,"nx":28,"ny":28,"refTime":"2024-05-19T03:00:00:Z","depth":0,"parameterNumber":2,"parameterNumberName":"U-component_of_WINDS"},"data":[0,0,0,0,0,0,0,0,0,0,0,0,0,0,0,0,0,0,0,0,0,0,0,0,0,0,0,0,0,0,0,0,0,0,0,0,0,0,0,0,0,0,0,0,0,0,0,0,0,0,0,0,0,0,0,0,0,0,3.0184,3.0185,0,3.0241,3.0242,3.0243,3.019,3.0187,3.0185,3.0183,3.0243,3.0247,3.025,0,0,0,0,0,0,0,0,0,0,0,0,0,3.0031,3.0034,3.0184,3.0185,3.0186,3.0241,3.0242,3.0243,3.019,3.0187,3.0185,3.0182,3.0242,3.0246,3.025,0,0,0,0,0,0,0,0,0,0,0,0,0,3.0094,3.0035,3.0184,3.0166,3.0165,3.0241,3.0242,3.0243,3.019,3.0187,3.0184,3.0181,3.024,3.0246,3.0251,3.0348,0,0,3.0267,3.027,0,0,0,0,0,0,0,0,3.009,3.0099,3.0168,3.0167,3.0166,3.0205,3.021,3.0278,3.0191,3.0181,3.0183,3.0179,3.0233,3.0239,3.0257,3.0351,3.0354,3.0268,3.0271,3.0273,3.0275,0,0,0,0,0,0,0,3.0086,3.0096,3.0207,3.0169,3.0168,3.0155,3.0161,3.0222,3.0224,3.0182,3.0178,3.0185,3.0232,3.0252,3.0258,3.0355,3.0268,3.0273,3.0276,3.0278,3.053,3.0534,0,0,0,0,0,0,3.0083,3.0093,3.0205,3.0209,3.0119,3.0161,3.0167,3.0196,3.0223,3.0225,3.0188,3.0183,3.0244,3.0251,3.026,3.0374,3.0273,3.0278,3.0282,3.0527,3.0531,3.0535,0,0,0,0,0,0,3.008,3.0094,3.0203,3.015,3.0163,3.0167,3.02,3.0199,3.0218,3.0228,3.0228,3.0207,3.0242,3.0252,3.0326,3.0375,3.0281,3.0286,3.0523,3.0528,3.0533,3.0604,0,0,0,0,0,0,3.0076,3.0093,3.013,3.0151,3.0166,3.0268,3.0203,3.0202,3.0227,3.0221,3.0247,3.0248,3.024,3.0318,3.0332,3.0381,3.029,3.0518,3.0525,3.0531,3.0598,3.0611,3.0623,0,0,0,0,0,3.0071,3.0148,3.0132,3.0146,3.0212,3.0271,3.028,3.0269,3.0232,3.0268,3.0275,3.0247,3.0368,3.0326,3.0341,3.0393,3.0515,3.0523,3.0531,3.0592,3.0609,3.0623,0,0,0,0,0,0,3.0133,3.0151,3.0133,3.022,3.0244,3.0262,3.0309,3.0287,3.0323,3.0316,3.0301,3.0307,3.0385,3.0397,3.035,3.0488,3.0436,3.0447,3.0477,3.0493,3.0506,3.0501,3.0294,0,0,0,0,0,3.0157,3.0204,3.0217,3.0292,3.0305,3.0305,3.0331,3.032,3.0345,3.0355,3.0367,3.0393,3.0436,3.0466,3.0507,3.0599,3.0604,3.0642,3.0655,3.0665,3.0675,3.0723,3.074,3.056,3.056,3.056,0,0,3.0207,3.0222,3.0253,3.0305,3.0323,3.0371,3.0314,3.0368,3.0404,3.0364,3.0434,3.0444,3.0471,3.0555,3.0592,3.0567,3.0725,3.0675,3.0683,3.0687,3.0733,3.075,3.0765,3.0566,3.0565,3.0564,0,0,3.0322,3.0339,3.0403,3.0422,3.0449,3.0448,3.0464,3.0485,3.0489,3.056,3.053,3.0573,3.0649,3.0669,3.069,3.0812,3.0787,3.0826,3.0892,3.094,3.0954,3.0966,3.1009,3.1024,3.0836,3.0836,3.0836,0,3.038,3.0452,3.0438,3.0494,3.0517,3.0483,3.0547,3.0566,3.0606,3.0623,3.0594,3.0687,3.0704,3.0791,3.0821,3.0839,3.0856,3.0822,3.0953,3.0965,3.0977,3.1017,3.1033,3.084,3.084,3.0839,3.0839,0,3.0522,3.0572,3.062,3.0658,3.0687,3.0747,3.0743,3.0774,3.0761,3.0763,3.0835,3.0853,3.0897,3.0917,3.0905,3.1002,3.0985,3.0955,3.0902,3.0999,3.1036,3.1051,3.0847,3.0845,3.0844,3.0843,0,0,3.0677,3.0707,3.0725,3.0741,3.0769,3.0807,3.0865,3.0907,3.0933,3.0962,3.101,3.1075,3.1047,3.107,3.106,3.1102,3.1196,3.1066,3.1067,3.1089,3.1303,3.1325,3.1343,3.1181,3.1183,3.1186,3.13,0,3.0792,3.0892,3.0882,3.0977,3.1022,3.099,3.1041,3.1063,3.1067,3.1106,3.1111,3.1156,3.1116,3.113,3.117,3.1176,3.1239,3.1168,3.1224,3.1227,3.1217,3.1363,3.1386,3.1493,3.1315,3.1318,3.1319,0,3.0939,3.0972,3.1072,3.1091,3.111,3.1155,3.1192,3.123,3.1255,3.1255,3.1281,3.1264,3.1322,3.1269,3.1349,3.1301,3.1323,3.133,3.1334,3.1338,3.1278,3.1369,3.1527,3.1543,3.1343,3.1341,3.1339,0,3.1041,3.111,3.1178,3.1194,3.1219,3.1251,3.1263,3.1285,3.131,3.1343,3.1359,3.1398,3.142,3.1451,3.1445,3.1407,3.1526,3.1473,3.1527,3.1527,3.1552,3.1551,3.1715,3.1569,3.1569,3.1569,3.1569,0,3.1169,3.1231,3.1224,3.1266,3.1334,3.1322,3.139,3.1398,3.1417,3.146,3.1435,3.1476,3.1466,3.1507,3.1502,3.1568,3.1579,3.158,3.1578,3.1581,3.1581,3.1595,3.1587,3.1573,3.1572,3.1571,3.1571,0,3.1294,3.1292,3.1364,3.1381,3.1387,3.1436,3.1451,3.1491,3.1493,3.1547,3.1559,3.1562,3.1609,3.1606,3.1659,3.1656,3.1737,3.1727,3.1728,3.1725,3.1779,3.1774,3.1957,3.198,3.1821,3.1823,3.1824,0,3.1375,3.1422,3.1444,3.1471,3.1484,3.1528,3.1553,3.1543,3.1571,3.1602,3.1637,3.1681,3.1716,3.1791,3.1799,3.1839,3.1828,3.189,3.1834,3.1836,3.1828,3.1824,3.1829,3.1901,3.1902,3.1904,3.1905,0,3.1519,3.1516,3.1553,3.159,3.1621,3.165,3.1677,3.17,3.1692,3.1725,3.1771,3.1798,3.1851,3.1895,3.1933,3.1945,3.1924,3.1923,3.1937,3.1941,3.1939,3.1939,3.1756,3.1918,3.1917,3.1916,3.1915,3.1915,3.1624,3.1663,3.1685,3.1727,3.1746,3.1771,3.1808,3.1814,3.1853,3.1894,3.1886,3.1938,3.1962,3.201,3.2027,3.2067,3.2045,3.2067,3.2072,3.2077,3.2082,3.1933,3.2075,3.2074,3.2074,3.2074,3.2073,0,3.1765,3.1777,3.1816,3.1853,3.1887,3.1863,3.1891,3.1921,3.1966,3.199,3.2024,3.2077,3.2119,3.213,3.217,3.2201,3.2192,3.2212,3.2209,3.2212,3.21,3.2083,3.2218,3.2218,3.2218,3.2218,3.2218,3.2218,3.1843,3.1908,3.1907,3.1981,3.1992,3.2042,3.206,3.2083,3.2101,3.2161,3.2196,3.2202,3.222,3.2262,3.2299,3.2301,3.2317,3.234,3.2338,3.2234,3.222,3.2206,3.2189,3.2344,3.2344,3.2446,3.2447,3.2448]},{"header":{"parameterUnit":"m.s-1","parameterCategory":1,"la1":30.2991,"la2":30.254,"lo1":-89.0895,"lo2":-89.0444,"dy":0.0017,"dx":0.0017,"nx":28,"ny":28,"refTime":"2024-05-19T03:00:00:Z","depth":0,"parameterNumber":3,"parameterNumberName":"V-component_of_WINDS"},"data":[0,0,0,0,0,0,0,0,0,0,0,0,0,0,0,0,0,0,0,0,0,0,0,0,0,0,0,0,0,0,0,0,0,0,0,0,0,0,0,0,0,0,0,0,0,0,0,0,0,0,0,0,0,0,0,0,0,0,0.8119,0.8119,0,0.8142,0.8143,0.8143,0.8141,0.814,0.814,0.814,0.8163,0.8163,0.8164,0,0,0,0,0,0,0,0,0,0,0,0,0,0.8071,0.8072,0.8119,0.8119,0.8119,0.8142,0.8143,0.8143,0.8141,0.814,0.814,0.8139,0.8162,0.8163,0.8164,0,0,0,0,0,0,0,0,0,0,0,0,0,0.8093,0.8072,0.8119,0.8121,0.8122,0.8142,0.8143,0.8143,0.8141,0.814,0.814,0.8139,0.8162,0.8163,0.8165,0.8184,0,0,0.8169,0.817,0,0,0,0,0,0,0,0,0.8091,0.8094,0.812,0.8121,0.8122,0.8138,0.8134,0.8157,0.8141,0.8133,0.814,0.8139,0.8155,0.8157,0.8162,0.8185,0.8186,0.8169,0.817,0.8171,0.8171,0,0,0,0,0,0,0,0.809,0.8093,0.8128,0.8121,0.8121,0.8121,0.8123,0.8138,0.8147,0.8134,0.8134,0.8137,0.8155,0.8161,0.8163,0.8187,0.8169,0.817,0.8171,0.8172,0.8227,0.8228,0,0,0,0,0,0,0.8088,0.8092,0.8127,0.8129,0.8105,0.8122,0.8125,0.8133,0.8147,0.8148,0.8137,0.8137,0.8159,0.8161,0.8164,0.8188,0.8171,0.8172,0.8173,0.8226,0.8227,0.8228,0,0,0,0,0,0,0.8087,0.8091,0.8126,0.811,0.8115,0.8123,0.8133,0.8134,0.814,0.8149,0.815,0.8142,0.8158,0.8162,0.8179,0.8188,0.8173,0.8174,0.8226,0.8227,0.8227,0.8236,0,0,0,0,0,0,0.8086,0.8091,0.8099,0.8111,0.8116,0.8142,0.8134,0.8135,0.8143,0.8142,0.8154,0.8155,0.8158,0.8177,0.8181,0.819,0.8175,0.8225,0.8226,0.8227,0.8235,0.8237,0.8239,0,0,0,0,0,0.8084,0.81,0.8099,0.8103,0.8126,0.8143,0.8146,0.8149,0.8143,0.8151,0.8157,0.8155,0.8187,0.8179,0.8183,0.8193,0.8224,0.8226,0.8227,0.8234,0.8237,0.8239,0,0,0,0,0,0,0.8088,0.8102,0.8101,0.8121,0.8131,0.8142,0.8152,0.8152,0.8163,0.8162,0.8165,0.8168,0.8186,0.8191,0.8182,0.8213,0.8205,0.8207,0.8209,0.8211,0.8213,0.8212,0.8176,0,0,0,0,0,0.8092,0.8105,0.8115,0.8132,0.8137,0.8144,0.8151,0.8153,0.8163,0.8167,0.8174,0.8184,0.8196,0.8204,0.8215,0.8235,0.8238,0.8244,0.8246,0.8248,0.825,0.8261,0.8264,0.8232,0.8232,0.8232,0,0,0.8099,0.8108,0.8116,0.8134,0.8141,0.8154,0.8147,0.8161,0.8171,0.8169,0.8187,0.8192,0.8203,0.8222,0.823,0.8227,0.8259,0.825,0.8251,0.8252,0.8263,0.8266,0.8268,0.8233,0.8233,0.8233,0,0,0.8119,0.8127,0.8142,0.815,0.8162,0.8166,0.817,0.8181,0.8185,0.8202,0.8201,0.8212,0.8233,0.8241,0.8247,0.827,0.8268,0.8273,0.8284,0.8295,0.8297,0.8299,0.8308,0.831,0.8275,0.8275,0.8275,0,0.8126,0.8146,0.815,0.8164,0.8172,0.8171,0.8186,0.8193,0.8208,0.8213,0.8209,0.8235,0.8242,0.8263,0.8269,0.8274,0.8278,0.8272,0.8297,0.8299,0.8301,0.8309,0.8312,0.8276,0.8276,0.8276,0.8276,0,0.8155,0.8169,0.8179,0.8194,0.8203,0.8218,0.8223,0.8232,0.8232,0.8237,0.8255,0.8263,0.8276,0.8281,0.8282,0.8302,0.83,0.8296,0.8288,0.8304,0.8312,0.8315,0.8277,0.8276,0.8276,0.8276,0,0,0.8179,0.8195,0.8199,0.8206,0.8219,0.8229,0.8244,0.8257,0.8264,0.8274,0.8286,0.8304,0.8301,0.8308,0.831,0.8319,0.8336,0.8314,0.8314,0.8318,0.8359,0.8362,0.8366,0.8335,0.8336,0.8336,0.8358,0,0.82,0.8226,0.8229,0.8252,0.8265,0.8264,0.8277,0.8286,0.829,0.8301,0.8306,0.8319,0.8313,0.8318,0.8327,0.8332,0.8345,0.8331,0.8346,0.8347,0.8344,0.837,0.8373,0.8394,0.8361,0.8362,0.8362,0,0.8229,0.824,0.8264,0.8276,0.8281,0.8292,0.8305,0.8316,0.8326,0.8328,0.8336,0.8337,0.8351,0.8343,0.8362,0.8353,0.8359,0.8363,0.8364,0.8366,0.8356,0.8373,0.84,0.8403,0.8367,0.8366,0.8366,0,0.8244,0.8265,0.8283,0.8288,0.8302,0.831,0.8315,0.8325,0.8333,0.8343,0.8349,0.8361,0.8367,0.8376,0.838,0.8373,0.84,0.8391,0.8402,0.8402,0.8408,0.8408,0.8438,0.8412,0.8412,0.8412,0.8411,0,0.8268,0.8283,0.829,0.8301,0.8317,0.8321,0.8337,0.8342,0.8351,0.8362,0.8362,0.8372,0.8376,0.8387,0.839,0.8406,0.8409,0.8411,0.8412,0.8412,0.8411,0.8416,0.8415,0.8412,0.8412,0.8412,0.8412,0,0.8288,0.8293,0.8312,0.8323,0.8326,0.8338,0.8347,0.8358,0.8362,0.8376,0.838,0.8387,0.84,0.8404,0.842,0.8421,0.844,0.8439,0.8437,0.8437,0.8448,0.8447,0.8483,0.8488,0.8458,0.8458,0.8459,0,0.8303,0.8315,0.8327,0.8335,0.8341,0.8354,0.8362,0.8365,0.8374,0.8386,0.8395,0.8408,0.8419,0.8439,0.8445,0.8457,0.8457,0.8469,0.8459,0.8458,0.8458,0.8457,0.8458,0.847,0.8471,0.8471,0.8471,0,0.8329,0.8331,0.8343,0.8356,0.8366,0.8376,0.8386,0.8392,0.8397,0.8406,0.842,0.8428,0.8445,0.8458,0.847,0.8475,0.8474,0.8474,0.8477,0.8478,0.8476,0.8477,0.8443,0.8473,0.8473,0.8473,0.8473,0.8473,0.8347,0.8358,0.8368,0.8382,0.8389,0.8399,0.8409,0.8414,0.8426,0.844,0.8441,0.8456,0.8465,0.8482,0.8488,0.8499,0.8496,0.85,0.8502,0.8503,0.8504,0.8474,0.8501,0.8501,0.8501,0.8501,0.8501,0,0.8374,0.8381,0.8393,0.8407,0.8417,0.8415,0.8426,0.8435,0.8448,0.8457,0.8468,0.8483,0.8496,0.8503,0.8515,0.8523,0.8523,0.8526,0.8526,0.8527,0.8506,0.8502,0.8526,0.8526,0.8526,0.8526,0.8526,0.8526,0.8389,0.8407,0.841,0.8431,0.8437,0.8452,0.8459,0.8467,0.8474,0.8492,0.8503,0.8507,0.8515,0.8528,0.854,0.8541,0.8546,0.855,0.8551,0.8531,0.8529,0.8526,0.8523,0.8551,0.8551,0.8572,0.8572,0.8572]}]]